| time (UTC) | temp C | wind direction | speed KPH | gust KPH | rain 1hr cm | rain 24hr cm | rain mn cm | humidity % | barometer mb |
| 20260506224543 | 22 | 194 | 1.6 | 9.7 | 0.00 | 0.00 | 0.00 | 65 | 1017.4 |
| 20260506223041 | 22 | 0 | 0.0 | 9.7 | 0.00 | 0.00 | 0.00 | 65 | 1017.6 |
| 20260506221538 | 21 | 194 | 1.6 | 4.8 | 0.00 | 0.00 | 0.00 | 65 | 1017.8 |
| 20260506220042 | 22 | 194 | 0.0 | 8.0 | 0.00 | 0.00 | 0.00 | 65 | 1018.2 |
| 20260506214537 | 21 | 194 | 1.6 | 9.7 | 0.00 | 0.00 | 0.00 | 65 | 1018.4 |
| 20260506213035 | 21 | 0 | 0.0 | 8.0 | 0.00 | 0.00 | 0.00 | 66 | 1018.4 |
| 20260506211540 | 20 | 0 | 0.0 | 6.4 | 0.00 | 0.00 | 0.00 | 65 | 1018.6 |
| 20260506210038 | 20 | 0 | 0.0 | 4.8 | 0.00 | 0.00 | 0.00 | 67 | 1018.8 |
| 20260506203101 | 20 | 0 | 3.2 | 8.0 | 0.00 | 0.00 | 0.00 | 67 | 1019.1 |
| 20260506201539 | 20 | 181 | 0.0 | 6.4 | 0.00 | 0.00 | 0.00 | 70 | 1019.1 |
| 20260506200046 | 20 | 0 | 0.0 | 6.4 | 0.00 | 0.00 | 0.00 | 69 | 1019.2 |
| 20260506194536 | 20 | 0 | 0.0 | 6.4 | 0.00 | 0.00 | 0.00 | 70 | 1019.2 |
| 20260506193035 | 20 | 0 | 0.0 | 6.4 | 0.00 | 0.00 | 0.00 | 67 | 1019.5 |
| 20260506191534 | 20 | 175 | 1.6 | 9.7 | 0.00 | 0.00 | 0.00 | 70 | 1019.7 |
| 20260506190046 | 20 | 173 | 0.0 | 9.7 | 0.00 | 0.00 | 0.00 | 70 | 1020.0 |
| 20260506184548 | 20 | 168 | 1.6 | 9.7 | 0.00 | 0.00 | 0.00 | 71 | 1020.0 |
| 20260506183034 | 20 | 0 | 1.6 | 8.0 | 0.00 | 0.00 | 0.00 | 71 | 1020.1 |
| 20260506181534 | 19 | 164 | 0.0 | 6.4 | 0.00 | 0.00 | 0.00 | 74 | 1020.1 |
| 20260506180039 | 18 | 0 | 0.0 | 3.2 | 0.00 | 0.00 | 0.00 | 76 | 1020.1 |
| 20260506174537 | 17 | 0 | 0.0 | 3.2 | 0.00 | 0.00 | 0.00 | 76 | 1020.0 |
| 20260506173047 | 17 | 0 | 0.0 | 3.2 | 0.00 | 0.00 | 0.00 | 76 | 1020.1 |
| 20260506171538 | 17 | 0 | 0.0 | 3.2 | 0.00 | 0.00 | 0.00 | 79 | 1020.0 |
| 20260506170036 | 16 | 0 | 0.0 | 0.0 | 0.00 | 0.00 | 0.00 | 79 | 1020.0 |
| 20260506164536 | 16 | 0 | 0.0 | 0.0 | 0.00 | 0.00 | 0.00 | 80 | 1020.1 |
| 20260506163055 | 16 | 0 | 0.0 | 0.0 | 0.00 | 0.00 | 0.00 | 81 | 1020.0 |
| 20260506161538 | 15 | 0 | 0.0 | 0.0 | 0.00 | 0.00 | 0.00 | 81 | 1020.0 |
| 20260506160038 | 15 | 0 | 0.0 | 0.0 | 0.00 | 0.00 | 0.00 | 83 | 1019.9 |
| 20260506154543 | 15 | 0 | 0.0 | 0.0 | 0.00 | 0.00 | 0.00 | 84 | 1019.9 |
| 20260506153034 | 15 | 0 | 0.0 | 0.0 | 0.00 | 0.00 | 0.00 | 85 | 1019.9 |
| 20260506151540 | 15 | 0 | 0.0 | 0.0 | 0.00 | 0.00 | 0.00 | 86 | 1019.9 |
| 20260506150038 | 14 | 0 | 0.0 | 0.0 | 0.00 | 0.00 | 0.00 | 86 | 1019.7 |
| 20260506144537 | 13 | 0 | 0.0 | 0.0 | 0.00 | 0.00 | 0.00 | 86 | 1019.8 |
| 20260506143039 | 13 | 0 | 0.0 | 0.0 | 0.00 | 0.00 | 0.00 | 86 | 1019.8 |
| 20260506141535 | 13 | 0 | 0.0 | 0.0 | 0.00 | 0.00 | 0.00 | 87 | 1019.7 |
| 20260506140037 | 13 | 0 | 0.0 | 0.0 | 0.00 | 0.00 | 0.00 | 87 | 1019.5 |
| 20260506134538 | 13 | 0 | 0.0 | 0.0 | 0.00 | 0.00 | 0.00 | 87 | 1019.4 |
| 20260506133038 | 13 | 0 | 0.0 | 0.0 | 0.00 | 0.00 | 0.00 | 87 | 1019.3 |
| 20260506131539 | 13 | 0 | 0.0 | 0.0 | 0.00 | 0.00 | 0.00 | 86 | 1019.3 |
| 20260506130040 | 13 | 0 | 0.0 | 0.0 | 0.00 | 0.00 | 0.00 | 86 | 1019.1 |
| 20260506124535 | 13 | 0 | 0.0 | 0.0 | 0.00 | 0.00 | 0.00 | 86 | 1019.1 |
| 20260506123036 | 13 | 0 | 0.0 | 0.0 | 0.00 | 0.00 | 0.00 | 86 | 1018.9 |
| 20260506121532 | 13 | 0 | 0.0 | 0.0 | 0.00 | 0.00 | 0.00 | 86 | 1018.8 |
| 20260506120040 | 13 | 0 | 0.0 | 0.0 | 0.00 | 0.00 | 0.00 | 86 | 1018.7 |
| 20260506114534 | 13 | 0 | 0.0 | 0.0 | 0.00 | 0.00 | 0.00 | 86 | 1018.8 |
| 20260506113034 | 13 | 0 | 0.0 | 0.0 | 0.00 | 0.00 | 0.00 | 86 | 1018.7 |
| 20260506111538 | 13 | 0 | 0.0 | 0.0 | 0.00 | 0.00 | 0.00 | 86 | 1018.6 |
| 20260506110036 | 13 | 0 | 0.0 | 0.0 | 0.00 | 0.00 | 0.00 | 86 | 1018.4 |
| 20260506104537 | 13 | 0 | 0.0 | 0.0 | 0.00 | 0.00 | 0.00 | 86 | 1018.3 |
| 20260506103038 | 13 | 0 | 0.0 | 0.0 | 0.00 | 0.00 | 0.00 | 86 | 1018.3 |
| 20260506101535 | 13 | 0 | 0.0 | 0.0 | 0.00 | 0.00 | 0.00 | 86 | 1018.1 |
| 20260506100037 | 13 | 0 | 0.0 | 0.0 | 0.00 | 0.00 | 0.00 | 86 | 1017.9 |
| 20260506094542 | 13 | 0 | 0.0 | 0.0 | 0.00 | 0.00 | 0.00 | 86 | 1018.0 |
| 20260506093039 | 13 | 0 | 0.0 | 0.0 | 0.00 | 0.00 | 0.00 | 86 | 1017.9 |
| 20260506091537 | 13 | 0 | 0.0 | 0.0 | 0.00 | 0.00 | 0.00 | 85 | 1018.0 |
| 20260506090037 | 13 | 0 | 0.0 | 0.0 | 0.00 | 0.00 | 0.00 | 85 | 1018.1 |
| 20260506084543 | 13 | 0 | 0.0 | 0.0 | 0.00 | 0.00 | 0.00 | 85 | 1017.9 |
| 20260506083038 | 14 | 0 | 0.0 | 0.0 | 0.00 | 0.00 | 0.00 | 85 | 1018.0 |
| 20260506081543 | 14 | 0 | 0.0 | 0.0 | 0.00 | 0.00 | 0.00 | 85 | 1018.0 |
| 20260506073038 | 14 | 0 | 0.0 | 0.0 | 0.00 | 0.00 | 0.00 | 84 | 1017.8 |
| 20260506071535 | 14 | 0 | 0.0 | 0.0 | 0.00 | 0.00 | 0.00 | 84 | 1017.7 |
| 20260506061543 | 15 | 0 | 0.0 | 3.2 | 0.00 | 0.08 | 0.00 | 83 | 1017.2 |
| 20260506044543 | 15 | 0 | 0.0 | 0.0 | 0.00 | 0.56 | 0.00 | 81 | 1016.4 |
| 20260506043037 | 15 | 0 | 0.0 | 0.0 | 0.00 | 0.56 | 0.00 | 80 | 1016.2 |
| 20260506041550 | 15 | 0 | 0.0 | 0.0 | 0.00 | 0.56 | 0.00 | 80 | 1016.0 |
| 20260506040035 | 15 | 0 | 0.0 | 0.0 | 0.00 | 0.56 | 0.00 | 79 | 1015.8 |
| 20260506034547 | 16 | 0 | 0.0 | 6.4 | 0.00 | 1.30 | 0.00 | 79 | 1015.6 |
| 20260506033040 | 16 | 0 | 0.0 | 6.4 | 0.00 | 1.30 | 0.00 | 78 | 1015.6 |
| 20260506031537 | 16 | 164 | 0.0 | 3.2 | 0.00 | 1.30 | 0.00 | 78 | 1015.4 |
| 20260506030039 | 16 | 0 | 0.0 | 0.0 | 0.00 | 1.30 | 0.00 | 78 | 1015.3 |
| 20260506024536 | 16 | 0 | 0.0 | 6.4 | 0.00 | 1.57 | 0.00 | 76 | 1015.0 |
| 20260506023034 | 16 | 164 | 1.6 | 6.4 | 0.00 | 1.57 | 0.00 | 76 | 1015.0 |
| 20260506021538 | 16 | 164 | 0.0 | 6.4 | 0.00 | 1.57 | 0.00 | 75 | 1014.6 |
| 20260506020042 | 17 | 0 | 0.0 | 3.2 | 0.00 | 1.57 | 0.00 | 74 | 1014.6 |
| 20260506014538 | 17 | 164 | 0.0 | 6.4 | 0.00 | 1.88 | 0.00 | 73 | 1014.4 |
| 20260506013050 | 17 | 0 | 1.6 | 6.4 | 0.00 | 1.88 | 0.00 | 72 | 1014.4 |
| 20260506011543 | 17 | 0 | 1.6 | 4.8 | 0.00 | 1.88 | 0.00 | 72 | 1014.3 |
| 20260506010043 | 17 | 184 | 0.0 | 8.0 | 0.00 | 1.88 | 0.00 | 71 | 1014.4 |
| 20260506004537 | 17 | 191 | 0.0 | 4.8 | 0.00 | 2.03 | 0.00 | 69 | 1014.3 |
| 20260506003038 | 17 | 193 | 0.0 | 4.8 | 0.00 | 2.03 | 0.00 | 67 | 1014.4 |
| 20260506001537 | 17 | 199 | 1.6 | 6.4 | 0.00 | 2.03 | 0.00 | 69 | 1014.0 |
| 20260506000037 | 18 | 209 | 0.0 | 4.8 | 0.00 | 2.03 | 0.00 | 69 | 1014.1 |
| 20260505234536 | 18 | 0 | 0.0 | 4.8 | 0.00 | 2.31 | 0.00 | 69 | 1014.2 |
| 20260505233035 | 18 | 0 | 0.0 | 3.2 | 0.00 | 2.31 | 0.00 | 67 | 1014.1 |
| 20260505231534 | 18 | 210 | 0.0 | 4.8 | 0.00 | 2.31 | 0.00 | 73 | 1014.1 |
| 20260505230100 | 17 | 0 | 0.0 | 0.0 | 0.00 | 2.31 | 0.00 | 71 | 1014.3 |